Location: Izdebno
(52.6670°N, 16.2170°E)
Time: 09:23:09
(UTC+02:00)

A-11 Canister half - Pass Details

Date: 27 February 2024
Orbit: 1513 x 1686 km, 47.2° (Epoch: 24 April)

Event Time Altitude Azimuth Distance (km) Brightness Sun altitude
Exits shadow 02:56:20 59° 172° (S) 1,881 9.1 -34.3°
Maximum altitude 02:56:38 59° 165° (SSE) 1,877 9.2 -34.3°
Drops below altitude 10° 03:06:16 10° 89° (E) 3,860 11.7 -33.1°
Sets 03:09:23 0° 86° (E) 4,824 12.4 -32.7°
